• In Uzbekistan
  • List of Countries
  • For 7 days
  • Water Temperature
  • Satellite Maps
  • Weather Map
  • Weather Widgets
  • user-avatar
    Login

    Hourly Weather Barra

    Today, 7 December, Wednesday

    Time Temperature Precipitation Wind Pressure Humidity
    00:00 +21°C° 0 mm 3 mps 747 mmHg 94%
    01:00 +21°C° 0 mm 3 mps 747 mmHg 95%
    02:00 +21°C° 0 mm 2 mps 747 mmHg 95%
    03:00 +21°C° 0 mm 2 mps 747 mmHg 95%
    04:00 +23°C° 0 mm 2 mps 747 mmHg 89%
    05:00 +24°C° 0 mm 2 mps 747 mmHg 84%
    06:00 +25°C° 0 mm 2 mps 747 mmHg 79%
    07:00 +26°C° 0 mm 2 mps 748 mmHg 73%
    08:00 +28°C° 0 mm 3 mps 748 mmHg 65%
    09:00 +30°C° 0 mm 3 mps 748 mmHg 58%
    10:00 +32°C° 0 mm 2 mps 748 mmHg 47%
    11:00 +34°C° 0 mm 2 mps 747 mmHg 45%
    12:00 +35°C° 0 mm 3 mps 747 mmHg 43%
    13:00 +36°C° 0 mm 3 mps 747 mmHg 41%
    14:00 +35°C° 0 mm 3 mps 747 mmHg 45%
    15:00 +34°C° 0 mm 4 mps 746 mmHg 49%
    16:00 +33°C° 0 mm 4 mps 746 mmHg 55%
    17:00 +30°C° 0 mm 3 mps 747 mmHg 66%
    18:00 +28°C° 0 mm 3 mps 747 mmHg 77%
    19:00 +26°C° 0 mm 3 mps 747 mmHg 88%
    20:00 +26°C° 0 mm 3 mps 747 mmHg 90%
    21:00 +26°C° 0 mm 2 mps 747 mmHg 91%
    22:00 +25°C° 0 mm 2 mps 747 mmHg 93%
    23:00 +25°C° 0 mm 2 mps 747 mmHg 93%

    Tomorrow, 8 December, Thursday

    Time Temperature Precipitation Wind Pressure Humidity
    00:00 +25°C° 0 mm 2 mps 747 mmHg 94%
    01:00 +25°C° 0 mm 2 mps 747 mmHg 94%
    02:00 +25°C° 0 mm 2 mps 747 mmHg 94%
    03:00 +25°C° 0 mm 2 mps 746 mmHg 94%
    04:00 +25°C° 0 mm 2 mps 746 mmHg 94%
    05:00 +25°C° 0 mm 2 mps 746 mmHg 92%
    06:00 +26°C° 0 mm 2 mps 747 mmHg 89%
    07:00 +26°C° 0 mm 2 mps 747 mmHg 87%
    08:00 +28°C° 0.1 mm 2 mps 747 mmHg 78%
    09:00 +30°C° 0.1 mm 2 mps 747 mmHg 69%
    10:00 +32°C° 0.1 mm 2 mps 747 mmHg 60%
    11:00 +33°C° 0.1 mm 3 mps 746 mmHg 58%
    12:00 +34°C° 0.1 mm 3 mps 746 mmHg 56%
    13:00 +34°C° 0.1 mm 3 mps 746 mmHg 54%
    14:00 +34°C° 0 mm 4 mps 745 mmHg 55%
    15:00 +34°C° 0 mm 4 mps 745 mmHg 57%
    16:00 +33°C° 0 mm 4 mps 744 mmHg 58%
    17:00 +30°C° 0 mm 3 mps 745 mmHg 67%
    18:00 +28°C° 0 mm 3 mps 745 mmHg 77%
    19:00 +26°C° 0 mm 3 mps 745 mmHg 86%
    20:00 +26°C° 0 mm 2 mps 746 mmHg 88%
    21:00 +26°C° 0 mm 2 mps 747 mmHg 90%
    22:00 +25°C° 0 mm 2 mps 747 mmHg 91%
    23:00 +25°C° 0 mm 2 mps 747 mmHg 91%

    Day after tomorrow, 9 December, Friday

    Time Temperature Precipitation Wind Pressure Humidity
    00:00 +25°C° 0 mm 2 mps 746 mmHg 90%
    01:00 +25°C° 0 mm 2 mps 746 mmHg 89%
    02:00 +24°C° 0 mm 2 mps 746 mmHg 92%
    03:00 +23°C° 0 mm 2 mps 746 mmHg 94%
    04:00 +21°C° 0 mm 2 mps 745 mmHg 97%
    05:00 +23°C° 0 mm 2 mps 746 mmHg 91%
    06:00 +24°C° 0 mm 1 mps 746 mmHg 86%
    07:00 +26°C° 0 mm 1 mps 746 mmHg 81%
    08:00 +28°C° 0 mm 2 mps 747 mmHg 72%
    09:00 +30°C° 0 mm 2 mps 747 mmHg 64%
    10:00 +32°C° 0 mm 2 mps 747 mmHg 55%
    11:00 +34°C° 0 mm 2 mps 746 mmHg 52%
    12:00 +35°C° 0 mm 2 mps 746 mmHg 49%
    13:00 +36°C° 0 mm 2 mps 745 mmHg 46%
    14:00 +35°C° 0 mm 2 mps 745 mmHg 49%
    15:00 +35°C° 0 mm 3 mps 744 mmHg 52%
    16:00 +34°C° 0 mm 3 mps 744 mmHg 54%
    17:00 +31°C° 0 mm 3 mps 744 mmHg 65%
    18:00 +29°C° 0 mm 3 mps 745 mmHg 76%
    19:00 +27°C° 0 mm 3 mps 745 mmHg 87%
    20:00 +26°C° 0 mm 3 mps 746 mmHg 89%
    21:00 +26°C° 0 mm 3 mps 746 mmHg 92%
    22:00 +26°C° 0 mm 3 mps 747 mmHg 94%
    23:00 +26°C° 0 mm 3 mps 746 mmHg 93%

    10 December, Saturday

    Time Temperature Precipitation Wind Pressure Humidity
    00:00 +26°C° 0 mm 3 mps 746 mmHg 93%
    01:00 +26°C° 0 mm 3 mps 746 mmHg 92%
    02:00 +26°C° 0 mm 3 mps 746 mmHg 93%
    03:00 +26°C° 0 mm 2 mps 746 mmHg 94%
    04:00 +26°C° 0 mm 2 mps 746 mmHg 95%
    05:00 +26°C° 0 mm 2 mps 746 mmHg 93%
    06:00 +26°C° 0 mm 2 mps 747 mmHg 90%
    07:00 +27°C° 0 mm 2 mps 748 mmHg 88%
    08:00 +28°C° 0 mm 2 mps 748 mmHg 80%
    09:00 +29°C° 0 mm 3 mps 748 mmHg 73%
    10:00 +30°C° 0 mm 3 mps 748 mmHg 65%
    11:00 +31°C° 0 mm 3 mps 747 mmHg 61%
    12:00 +33°C° 0 mm 3 mps 747 mmHg 56%
    13:00 +34°C° 0 mm 4 mps 746 mmHg 52%
    14:00 +34°C° 0 mm 4 mps 746 mmHg 54%
    15:00 +33°C° 0 mm 4 mps 745 mmHg 55%
    16:00 +33°C° 0 mm 4 mps 745 mmHg 57%
    17:00 +30°C° 0 mm 4 mps 746 mmHg 65%
    18:00 +28°C° 0 mm 4 mps 746 mmHg 74%
    19:00 +26°C° 0 mm 3 mps 747 mmHg 82%
    20:00 +26°C° 0 mm 4 mps 747 mmHg 84%
    21:00 +26°C° 0 mm 4 mps 747 mmHg 86%
    22:00 +26°C° 0 mm 4 mps 748 mmHg 88%
    23:00 +26°C° 0.1 mm 4 mps 747 mmHg 89%

    11 December, Sunday

    Time Temperature Precipitation Wind Pressure Humidity
    00:00 +26°C° 0.1 mm 4 mps 747 mmHg 89%
    01:00 +26°C° 0.1 mm 4 mps 746 mmHg 89%
    02:00 +26°C° 0.4 mm 4 mps 746 mmHg 90%
    03:00 +25°C° 0.4 mm 4 mps 746 mmHg 90%
    04:00 +25°C° 0.4 mm 4 mps 746 mmHg 91%
    05:00 +25°C° 0.3 mm 4 mps 747 mmHg 90%
    06:00 +26°C° 0.3 mm 4 mps 747 mmHg 88%
    07:00 +26°C° 0.3 mm 4 mps 748 mmHg 87%
    08:00 +27°C° 0.2 mm 4 mps 748 mmHg 80%
    09:00 +28°C° 0.2 mm 4 mps 748 mmHg 74%
    10:00 +29°C° 0.2 mm 4 mps 748 mmHg 68%
    11:00 +30°C° 0.3 mm 4 mps 748 mmHg 63%
    12:00 +32°C° 0.3 mm 4 mps 747 mmHg 59%
    13:00 +33°C° 0.3 mm 5 mps 747 mmHg 54%
    14:00 +32°C° 0.1 mm 5 mps 747 mmHg 56%
    15:00 +32°C° 0.1 mm 5 mps 746 mmHg 58%
    16:00 +30°C° 0.1 mm 5 mps 746 mmHg 60%
    17:00 +29°C° 0.1 mm 4 mps 746 mmHg 67%
    18:00 +28°C° 0.1 mm 4 mps 747 mmHg 74%
    19:00 +26°C° 0.1 mm 4 mps 747 mmHg 81%
    20:00 +26°C° 0.7 mm 4 mps 748 mmHg 82%
    21:00 +26°C° 0.7 mm 4 mps 748 mmHg 84%
    22:00 +25°C° 0.7 mm 4 mps 748 mmHg 85%
    23:00 +25°C° 0.5 mm 4 mps 748 mmHg 87%

    12 December, Monday

    Time Temperature Precipitation Wind Pressure Humidity
    00:00 +25°C° 0.5 mm 4 mps 747 mmHg 88%
    01:00 +23°C° 0.5 mm 4 mps 747 mmHg 89%
    02:00 +23°C° 0.4 mm 4 mps 747 mmHg 90%
    03:00 +23°C° 0.4 mm 4 mps 746 mmHg 90%
    04:00 +23°C° 0.4 mm 4 mps 746 mmHg 90%
    05:00 +25°C° 0.4 mm 4 mps 747 mmHg 88%
    06:00 +25°C° 0.4 mm 4 mps 747 mmHg 85%
    07:00 +26°C° 0.4 mm 4 mps 748 mmHg 83%
    08:00 +27°C° 0.5 mm 4 mps 748 mmHg 76%
    09:00 +28°C° 0.5 mm 5 mps 748 mmHg 69%
    10:00 +30°C° 0.5 mm 5 mps 748 mmHg 62%
    11:00 +32°C° 0.4 mm 5 mps 747 mmHg 59%
    12:00 +32°C° 0.4 mm 5 mps 747 mmHg 57%
    13:00 +33°C° 0.4 mm 6 mps 746 mmHg 54%
    14:00 +32°C° 0.2 mm 5 mps 746 mmHg 57%
    15:00 +32°C° 0.2 mm 5 mps 746 mmHg 60%
    16:00 +30°C° 0.2 mm 5 mps 746 mmHg 62%
    17:00 +29°C° 0.7 mm 5 mps 746 mmHg 70%
    18:00 +27°C° 0.7 mm 5 mps 747 mmHg 78%
    19:00 +26°C° 0.7 mm 4 mps 748 mmHg 85%
    20:00 +26°C° 1.1 mm 5 mps 748 mmHg 86%
    21:00 +26°C° 1.1 mm 5 mps 748 mmHg 87%
    22:00 +26°C° 1.1 mm 5 mps 749 mmHg 87%
    23:00 +25°C° 1 mm 5 mps 748 mmHg 88%
    Show more